Regional Weather Roundup
Issued by NWS Jackson, KY

Home | Current Version | Previous Version | Text Only | Print | Product List | Glossary Off
Versions: 1 2 3 4 5 6 7 8 9 10 11 12 13 14 15 16 17 18 19 20 21 22 23 24 25 26 27 28 29 30 31 32 33 34 35 36 37 38 39 40 41 42 43 44 45 46 47 48 49 50

184
ASUS43 KJKL 220310
RWRJKL

EAST KENTUCKY HOURLY WEATHER ROUNDUP
NATIONAL WEATHER SERVICE JACKSON KY
1100 PM EDT FRI JUL 21 2017

NOTE: "FAIR" INDICATES FEW OR NO CLOUDS BELOW 12,000 FEET WITH
NO SIGNIFICANT WEATHER AND/OR OBSTRUCTIONS TO VISIBILITY.

* THESE REPORTS ARE NOT UNDER NWS QUALITY CONTROL AND MAY NOT
  REPORT WEATHER SUCH AS PRECIPITATION AND FOG.

KYZ079-080-083-085-087-088-110-112-115-119-120-220400
...EASTERN KENTUCKY...

CITY           SKY/WX    TMP DP  RH WIND       PRES   REMARKS
JACKSON        CLEAR     80  73  79 CALM      30.03S
LONDON         CLEAR     80  72  76 CALM      30.04R
SOMERSET*      CLEAR     77  70  78 CALM      30.03S
MONTICELLO*    CLEAR     75  73  93 NE8       30.04R
WILLIAMSBURG*  CLEAR     77  75  94 CALM      30.04R
MIDDLESBORO*   CLEAR     78  72  82 CALM      30.05S
HARLAN APT*    CLEAR     75  72  88 CALM      30.07R
PIKE CO APT*     N/A     81  74  80 SE3       30.04S
BIG SANDY APT* CLEAR     80  75  86 SE3       30.02S
MOREHEAD APT*  CLOUDY    81  75  83 S3        30.01S
ASHLAND*         N/A    N/A N/A N/A MISG        N/A  THUNDER
$$

KYZ035-036-041-042-044-050-067-078-099-220400
...CENTRAL KENTUCKY...

CITY           SKY/WX    TMP DP  RH WIND       PRES   REMARKS
MT STERLING*   CLEAR     79  73  83 W6        30.01S
FLEMING/MASON* CLOUDY    78  77  97 E5        30.00R
DANVILLE*      CLEAR     79  73  83 CALM      30.02S
LEXINGTON      CLEAR     82  73  74 S5        29.99S
FRANKFORT      CLEAR     82  73  74 SW3       29.97R
LOUISVILLE     PTCLDY    88  74  63 SW5       29.96R HX  96
LEBANON*         N/A     82  73  74 S8        30.00R
GLASGOW*       CLEAR     82  73  73 CALM      30.00R
BOWLING GREEN  CLEAR     87  76  69 S6        29.98R HX  97
$$

KYZ091>093-OHZ055-061-077-WVZ005-015-034-035-042-220400
...SOUTHERN OHIO/WEST VIRGINIA...

CITY           SKY/WX    TMP DP  RH WIND       PRES   REMARKS
COVINGTON      PTCLDY    77  73  87 S3        29.97S
COLUMBUS       PTCLDY    78  74  87 CALM      29.97R
DAYTON         PTCLDY    72  71  97 SE6       30.00R
WILMINGTON     TSTM      74  74 100 N9        30.00R FOG
HUNTINGTON     CLEAR     76  73  91 E3        29.99S
CHARLESTON     CLOUDY    75  70  84 CALM      30.01S
PINEVILLE*     CLEAR     72  69  92 MISG      30.12R
BECKLEY        CLEAR     71  63  75 CALM      30.11R
BLUEFIELD      CLOUDY    75  65  70 W5        30.15R
LOGAN CO APT*    N/A     77  72  83 CALM      30.05S
$$

VAZ002-007-008-TNZ017-027-036-066-071-220400
...SOUTHWEST VIRGINIA/EAST TENNESSEE...

CITY           SKY/WX    TMP DP  RH WIND       PRES   REMARKS
WISE*          CLEAR     75  64  69 CALM      30.15S
JONESVILLE*      N/A     77  73  88 CALM      30.08R
ABINGDON*      CLEAR     77  70  79 CALM      30.10R
BRISTOL        PTCLDY    76  70  82 CALM      30.06R
MORRISTOWN*    CLEAR     81  73  78 CALM      30.03S
SEVIERVILLE*   CLEAR     79  70  73 CALM      30.02R
KNOXVILLE      PTCLDY    84  72  67 CALM      30.01R
LAFOLLETTE*      N/A     77  75  94 CALM      30.07R
OAK RIDGE      CLEAR     82  74  76 CALM      30.03R
CROSSVILLE     CLEAR     77  71  82 CALM      30.08F
NASHVILLE      CLEAR     85  74  69 CALM      29.99R HX  92
$$

...KEY TO REMARKS...
VSB - VISIBILITY IN MILES
WCI - WIND CHILL INDEX
HX  - HEAT INDEX

$$




USA.gov is the U.S. government's official web portal to all federal, state and local government web resources and services.